This is the latest recevied weather packets stored in our database for station/object K4DNM. If no packets are shown the sender has not sent any weather packets the latest 10 day(s).
| Time | Temp. | Humidity | Pressure | Rain* | Wind** | Luminosity | Snow |
|---|---|---|---|---|---|---|---|
| 1778008132 | 26.67° C | 45% | 1014.7 hPa | 0 mm | - | 686 W/m² | - |
| 1778007832 | 26.67° C | 46% | 1014.8 hPa | 0 mm | - | 684 W/m² | - |
| 1778007531 | 26.67° C | 46% | 1014.9 hPa | 0 mm | - | 695 W/m² | - |
| 1778007292 | 26.67° C | 47% | 1014.9 hPa | 0 mm | - | 545 W/m² | - |
| 1778006931 | 26.67° C | 45% | 1014.9 hPa | 0 mm | - | 801 W/m² | - |
| 1778006635 | 26.11° C | 46% | 1015 hPa | 0 mm | - | 876 W/m² | - |
| 1778006329 | 26.11° C | 47% | 1015.2 hPa | 0 mm | - | 700 W/m² | - |
| 1778006026 | 26.11° C | 46% | 1015.3 hPa | 0 mm | - | 339 W/m² | - |
| 1778005726 | 26.67° C | 46% | 1015.2 hPa | 0 mm | - | 187 W/m² | - |
| 1778005423 | 26.67° C | 44% | 1015.2 hPa | 0 mm | - | 361 W/m² | - |
| 1778005126 | 26.67° C | 49% | 1015.2 hPa | 0 mm | - | 975 W/m² | - |
| 1778004824 | 26.11° C | 46% | 1015.3 hPa | 0 mm | - | 897 W/m² | - |
| 1778004584 | 26.11° C | 46% | 1015.3 hPa | 0 mm | - | 918 W/m² | - |
| 1778004224 | 26.11° C | 46% | 1015.3 hPa | 0 mm | - | 958 W/m² | - |
| 1778003986 | 26.11° C | 46% | 1015.3 hPa | 0 mm | - | 992 W/m² | - |
| 1778003623 | 26.11° C | 48% | 1015.4 hPa | 0 mm | - | 964 W/m² | - |
| 1778003326 | 26.11° C | 50% | 1015.3 hPa | 0 mm | - | 968 W/m² | - |
| 1778003023 | 26.11° C | 47% | 1015.4 hPa | 0 mm | - | 731 W/m² | - |
| 1778002723 | 26.11° C | 46% | 1015.4 hPa | 0 mm | - | 972 W/m² | - |
| 1778002421 | 25.56° C | 50% | 1015.4 hPa | 0 mm | - | 1013 W/m² | - |
| 1778002122 | 25.56° C | 49% | 1015.5 hPa | 0 mm | - | 415 W/m² | - |
| 1778001821 | 26.11° C | 49% | 1015.5 hPa | 0 mm | - | 947 W/m² | - |
| 1778001523 | 25.56° C | 51% | 1015.4 hPa | 0 mm | - | 1006 W/m² | - |
| 1778001221 | 25.56° C | 49% | 1015.5 hPa | 0 mm | - | 964 W/m² | - |
| 1778000922 | 25.56° C | 51% | 1015.5 hPa | 0 mm | - | 979 W/m² | - |
* Rain latest hour (hover to see other rain measurements)
** Current wind speed in m/s (hover to see current wind gust speed)